Flag for Russia Weather past 2 weeks in Saratov, Russia

Now
12 °F

Ice fog.


Feels Like: 12 °F
Forecast: 22 / 28 °F
Wind: 1 mph from North

Location: Saratov / Tsentralny

Current Time: Mar 6, 2015 at 7:09:47 AM

Latest Report: Mar 6, 2015 at 6:30 AM


Visibility: 2 mi

Pressure: 30.30 "Hg

Humidity: 100%

Dew point: 12 °F

Location of SaratovLocation

Historic Weather in Saratov — Graph

°F

Saratov temperature yesterday

Maximum temperature yesterday: 23 °F (at 2:00 PM)
Minimum temperature yesterday: 7 °F (at 7:30 AM)
Average temperature yesterday: 15 °F

Past Weeks' High & Low Weather Summary

 TemperatureHumidityPressure
High37 °F (Feb 22, 11:00 AM)100% (Feb 20, 6:00 AM)30.63 "Hg (Feb 20, 6:00 AM)
Low1 °F (Feb 20, 3:30 AM)52% (Feb 22, 11:00 AM)29.95 "Hg (Feb 19, 1:30 PM)
Average20 °F85%30.28 "Hg
* Reported Feb 19 5:00 AM — Mar 6 5:30 AM, Saratov, Weather by CustomWeather, © 2015

Note: Actual official high and low records may vary slightly from our data, if they occured in-between our weather recording intervals... More about our weather records

Advertising

Saratov weather history for previous 24 hours

 ConditionsComfort  
Time TempWeatherWind HumidityBarometerVisibility
5:30 AM
Fri, Mar 6
14 °FIce fog.No wind92%30.27 "Hg1 mi
5:00 AM14 °FIce fog.No wind92%30.27 "Hg1 mi
4:30 AM12 °FIce fog.1 mph100%30.27 "Hg1 mi
4:00 AM12 °FIce fog.3 mph100%30.27 "Hg3 mi
3:30 AM10 °FIce fog.1 mph100%30.27 "Hg2 mi
3:00 AM10 °FIce fog.1 mph100%30.27 "Hg1 mi
2:30 AM10 °FIce fog.1 mph100%30.27 "Hg2 mi
2:00 AM10 °FIce fog.1 mph100%30.27 "Hg1 mi
1:30 AM12 °FIce fog.1 mph100%30.27 "Hg1 mi
1:00 AM12 °FIce fog.1 mph100%30.27 "Hg1 mi
12:30 AM16 °FIce fog.1 mph93%30.27 "Hg1 mi
11:30 PM
Thu, Mar 5
16 °FIce fog.1 mph93%30.27 "Hg1 mi
11:00 PM16 °FIce fog.1 mph93%30.27 "Hg1 mi
10:30 PM14 °FIce fog.1 mph92%30.24 "Hg1 mi
10:00 PM14 °FIce fog.6 mph92%30.24 "Hg2 mi
9:30 PM14 °FPassing clouds.8 mph85%30.24 "Hg4 mi
9:00 PM14 °FClear.8 mph85%30.24 "Hg10 mi
8:30 PM14 °FClear.8 mph85%30.21 "Hg10 mi
8:00 PM14 °FClear.6 mph85%30.21 "Hg10 mi
7:30 PM18 °FClear.6 mph73%30.21 "Hg10 mi
7:00 PM18 °FClear.6 mph73%30.21 "Hg10 mi
6:30 PM18 °FSunny.6 mph79%30.21 "Hg10 mi
6:00 PM18 °FSunny.6 mph79%30.21 "Hg10 mi
5:30 PM21 °FSunny.6 mph74%30.18 "Hg10 mi
5:00 PM21 °FSunny.6 mph74%30.18 "Hg10 mi
4:30 PM23 °FSunny.3 mph68%30.18 "Hg10 mi
4:00 PM23 °FSunny.3 mph68%30.18 "Hg10 mi
3:30 PM23 °FSunny.1 mph68%30.18 "Hg10 mi
3:00 PM23 °FSunny.3 mph68%30.18 "Hg10 mi
2:30 PM23 °FSunny.6 mph68%30.18 "Hg10 mi
2:00 PM23 °FSunny.6 mph68%30.18 "Hg10 mi
1:30 PM21 °FSunny.6 mph80%30.18 "Hg10 mi
1:00 PM21 °FSunny.3 mph80%30.18 "Hg10 mi
12:30 PM18 °FSunny.3 mph86%30.18 "Hg10 mi
12:00 PM18 °FSunny.3 mph86%30.18 "Hg10 mi
11:30 AM16 °FSunny.3 mph93%30.15 "Hg10 mi
11:00 AM16 °FSunny.1 mph93%30.15 "Hg10 mi
10:30 AM14 °FSunny.No wind92%30.15 "HgN/A
10:00 AM14 °FSunny.1 mph92%30.15 "Hg4 mi
9:30 AM12 °FSunny.1 mph100%30.15 "Hg4 mi
9:00 AM12 °FIce fog.1 mph100%30.15 "Hg2 mi
8:30 AM7 °FIce fog.1 mph100%30.15 "Hg2 mi
8:00 AM7 °FIce fog.3 mph100%30.15 "Hg1 mi
7:30 AM7 °FIce fog.3 mph100%30.12 "Hg1 mi
Weather by CustomWeather, © 2015

See weather overviewHow to use our weather pages